Boulder City, NV

3:49 PM PST on February 08, 2016 (GMT -0800)
Boulder City

Weather History for KBVU - May, 2014

Change the Weather History Date:

Saturday, May 3, 2014

  Actual Average (KLAS) Record (KLAS)
Temperature  
Mean Temperature 81 °F 73 °F  
Max Temperature 98 °F 84 °F 108 °F (1947)
Min Temperature 64 °F 62 °F 38 °F (1942)
Degree Days  
Heating Degree Days 0 1  
Month to date heating degree days 3  
Since 1 July heating degree days 1946  
Cooling Degree Days 16 9  
Month to date cooling degree days 25  
Year to date cooling degree days 185  
Growing Degree Days 31 (Base 50)    
Moisture  
Dew Point 13 °F    
Average Humidity 10    
Maximum Humidity 26    
Minimum Humidity 4    
Precipitation  
Precipitation 0.00 in 0.00 in 0.01 in (1941)
Month to date precipitation 0.01  
Year to date precipitation 1.90  
Snow  
Snow 0.00 in 0.00 in 0.00 in ()
Month to date snowfall 0.0  
Since 1 July snowfall 0.3  
Snow Depth -    
Sea Level Pressure  
Sea Level Pressure 29.87 in    
Wind  
Wind Speed 9 mph (South)    
Max Wind Speed 25 mph    
Max Gust Speed 37 mph    
Visibility 10 miles    
Events Thunderstorm    
T = Trace of Precipitation, MM = Missing Value Source: NWS Daily Summary

Daily Weather History Graph

Daily Weather History Graph

Search for Another Location

Airport or City:

Trip Planner

Search our weather history database for the weather conditions in past years. The results will help you decide how hot, cold, wet, or windy it might be!

Date:

Astronomy

May. 03, 2014 Rise Set
Actual Time 5:44 AM PDT 7:28 PM PDT
Civil Twilight 5:17 AM PDT 7:56 PM PDT
Nautical Twilight 4:43 AM PDT 8:29 PM PDT
Astronomical Twilight 4:08 AM PDT 9:04 PM PDT
Moon 9:19 AM PDT (5/3) 11:36 PM PDT (5/3)
Length of Visible Light 14h 38m
Length of Day
13h 43m
Waxing Crescent, 20% of the Moon is Illuminated
May 3
Waxing Crescent
May 6
First Quarter
May 14
Full
May 21
Last Quarter
May 28
New

Hourly Weather History & Observations

Time (PDT) Temp. Dew Point Humidity Pressure Visibility Wind Dir Wind Speed Gust Speed Precip Events Conditions
12:15 AM 69.8 °F 21.2 °F 16% 29.91 in 10.0 mi NNW 3.5 mph - N/A   Clear
12:35 AM 68.0 °F 28.4 °F 23% 29.91 in 10.0 mi NNE 3.5 mph - N/A   Clear
12:55 AM 69.8 °F 19.4 °F 15% 29.91 in 10.0 mi West 4.6 mph - N/A   Clear
1:15 AM 68.0 °F 23.0 °F 18% 29.91 in 10.0 mi Calm Calm - N/A   Clear
1:35 AM 69.8 °F 19.4 °F 15% 29.91 in 10.0 mi Calm Calm - N/A   Clear
1:55 AM 68.0 °F 24.8 °F 20% 29.90 in 10.0 mi NE 3.5 mph - N/A   Clear
2:15 AM 68.0 °F 24.8 °F 20% 29.90 in 10.0 mi ENE 5.8 mph - N/A   Clear
2:35 AM 68.0 °F 26.6 °F 21% 29.90 in 10.0 mi NE 5.8 mph - N/A   Clear
3:15 AM 69.8 °F 19.4 °F 15% 29.90 in 10.0 mi ENE 8.1 mph - N/A   Clear
3:35 AM 68.0 °F 21.2 °F 17% 29.90 in 10.0 mi ENE 6.9 mph - N/A   Clear
3:55 AM 66.2 °F 30.2 °F 26% 29.91 in 10.0 mi NE 6.9 mph - N/A   Clear
4:15 AM 66.2 °F 28.4 °F 24% 29.90 in 10.0 mi NE 6.9 mph - N/A   Clear
4:35 AM 68.0 °F 23.0 °F 18% 29.90 in 10.0 mi ENE 6.9 mph - N/A   Clear
4:55 AM 66.2 °F 24.8 °F 21% 29.90 in 10.0 mi NE 6.9 mph - N/A   Clear
5:15 AM 66.2 °F 24.8 °F 21% 29.91 in 10.0 mi NE 6.9 mph - N/A   Clear
5:35 AM 64.4 °F 23.0 °F 21% 29.91 in 10.0 mi NE 6.9 mph - N/A   Clear
5:55 AM 64.4 °F 24.8 °F 22% 29.91 in 10.0 mi NNE 6.9 mph - N/A   Clear
6:15 AM 64.4 °F 28.4 °F 26% 29.92 in 10.0 mi NE 6.9 mph - N/A   Clear
6:35 AM 68.0 °F 26.6 °F 21% 29.92 in 10.0 mi NE 6.9 mph - N/A   Clear
6:55 AM 71.6 °F 23.0 °F 16% 29.93 in 10.0 mi NNE 5.8 mph - N/A   Clear
7:15 AM 73.4 °F 24.8 °F 16% 29.93 in 10.0 mi NNE 6.9 mph - N/A   Clear
7:35 AM 77.0 °F 23.0 °F 13% 29.93 in 10.0 mi NE 6.9 mph - N/A   Clear
7:55 AM 78.8 °F 21.2 °F 12% 29.94 in 10.0 mi NE 6.9 mph - N/A   Clear
8:15 AM 80.6 °F 15.8 °F 9% 29.94 in 10.0 mi ENE 4.6 mph - N/A   Clear
8:35 AM 82.4 °F 12.2 °F 7% 29.95 in 10.0 mi Calm Calm - N/A   Clear
8:55 AM 84.2 °F 10.4 °F 6% 29.94 in 10.0 mi ESE 4.6 mph - N/A Thunderstorm Clear
9:15 AM 86.0 °F 8.6 °F 5% 29.95 in 10.0 mi SE 4.6 mph - N/A   Clear
9:35 AM 87.8 °F 6.8 °F 5% 29.94 in 10.0 mi East 10.4 mph - N/A   Clear
9:55 AM 87.8 °F 6.8 °F 5% 29.94 in 10.0 mi SE 9.2 mph - N/A   Clear
10:15 AM 89.6 °F 8.6 °F 5% 29.94 in 10.0 mi SE 8.1 mph 15.0 mph N/A   Clear
10:35 AM 89.6 °F 8.6 °F 5% 29.94 in 10.0 mi SSE 13.8 mph 19.6 mph N/A   Clear
10:55 AM 91.4 °F 8.6 °F 5% 29.93 in 10.0 mi SSE 13.8 mph 21.9 mph N/A   Clear
11:15 AM 91.4 °F 10.4 °F 5% 29.92 in 10.0 mi SE 15.0 mph - N/A   Clear
11:35 AM 91.4 °F 10.4 °F 5% 29.92 in 10.0 mi SE 13.8 mph - N/A   Clear
11:55 AM 93.2 °F 10.4 °F 5% 29.90 in 10.0 mi SE 15.0 mph 23.0 mph N/A   Clear
12:15 PM 95.0 °F 10.4 °F 4% 29.90 in 10.0 mi South 13.8 mph 24.2 mph N/A   Clear
12:35 PM 95.0 °F 8.6 °F 4% 29.90 in 10.0 mi SW 23.0 mph 28.8 mph N/A   Clear
1:15 PM 96.8 °F 10.4 °F 4% 29.88 in 10.0 mi South 15.0 mph 24.2 mph N/A   Clear
1:35 PM 96.8 °F 6.8 °F 4% 29.88 in 10.0 mi SW 23.0 mph 31.1 mph N/A Thunderstorm Clear
1:55 PM 96.8 °F 6.8 °F 4% 29.87 in 10.0 mi SW 19.6 mph 28.8 mph N/A   Clear
2:15 PM 96.8 °F 6.8 °F 4% 29.86 in 10.0 mi South 16.1 mph 32.2 mph N/A   Clear
2:35 PM 96.8 °F 5.0 °F 4% 29.85 in 10.0 mi SSW 24.2 mph 32.2 mph N/A   Clear
2:55 PM 98.6 °F 3.2 °F 4% 29.85 in 10.0 mi SW 25.3 mph 36.8 mph N/A Thunderstorm Clear
3:15 PM 96.8 °F 3.2 °F 4% 29.84 in 10.0 mi SSW 24.2 mph 29.9 mph N/A Thunderstorm Clear
3:35 PM 98.6 °F 3.2 °F 4% 29.83 in 10.0 mi SSW 18.4 mph 31.1 mph N/A Thunderstorm Clear
3:55 PM 96.8 °F 3.2 °F 4% 29.82 in 10.0 mi SW 20.7 mph 26.5 mph N/A   Clear
4:15 PM 96.8 °F 1.4 °F 4% 29.82 in 10.0 mi SW 20.7 mph 28.8 mph N/A   Clear
4:35 PM 96.8 °F -0.4 °F 4% 29.81 in 10.0 mi SW 21.9 mph 31.1 mph N/A   Clear
4:55 PM 96.8 °F -0.4 °F 4% 29.81 in 10.0 mi WSW 23.0 mph 28.8 mph N/A   Clear
5:15 PM 95.0 °F -2.2 °F 4% 29.81 in 10.0 mi WSW 15.0 mph 24.2 mph N/A   Clear
5:35 PM 95.0 °F 1.4 °F 4% 29.80 in 10.0 mi SW 19.6 mph 26.5 mph N/A   Clear
5:55 PM 95.0 °F 5.0 °F 4% 29.79 in 10.0 mi WSW 15.0 mph 21.9 mph N/A   Clear
6:15 PM 93.2 °F 5.0 °F 4% 29.79 in - SW 15.0 mph 21.9 mph N/A   Clear
6:35 PM 93.2 °F 8.6 °F 4% 29.79 in 10.0 mi SSW 16.1 mph 23.0 mph N/A   Clear
6:55 PM 93.2 °F 8.6 °F 4% 29.79 in 10.0 mi SSW 18.4 mph 27.6 mph N/A Thunderstorm Clear
7:15 PM 91.4 °F 8.6 °F 5% 29.79 in 10.0 mi SSW 13.8 mph 24.2 mph N/A   Clear
7:35 PM 91.4 °F 8.6 °F 5% 29.79 in 10.0 mi SSW 17.3 mph 25.3 mph N/A   Clear
7:55 PM 89.6 °F 8.6 °F 5% 29.79 in 10.0 mi SSW 15.0 mph - N/A   Clear
8:15 PM 87.8 °F 8.6 °F 5% 29.80 in 10.0 mi South 10.4 mph 17.3 mph N/A   Clear
8:35 PM 86.0 °F 8.6 °F 5% 29.81 in 10.0 mi SSW 11.5 mph - N/A   Clear
8:55 PM 86.0 °F 8.6 °F 5% 29.81 in 10.0 mi South 13.8 mph 21.9 mph N/A   Clear
9:15 PM 86.0 °F 8.6 °F 5% 29.82 in 10.0 mi SSW 9.2 mph 17.3 mph N/A   Clear
9:35 PM 82.4 °F 6.8 °F 6% 29.83 in 10.0 mi SW 8.1 mph - N/A   Clear
9:55 PM 82.4 °F 5.0 °F 5% 29.84 in 10.0 mi South 11.5 mph - N/A   Clear
10:15 PM 82.4 °F 6.8 °F 6% 29.84 in 10.0 mi South 10.4 mph - N/A   Clear
10:35 PM 82.4 °F 6.8 °F 6% 29.84 in 10.0 mi South 11.5 mph - N/A   Clear
10:55 PM 82.4 °F 6.8 °F 6% 29.85 in 10.0 mi South 10.4 mph - N/A   Clear
11:15 PM 80.6 °F 6.8 °F 6% 29.85 in 10.0 mi South 9.2 mph - N/A   Clear
11:35 PM 80.6 °F 8.6 °F 6% 29.85 in 10.0 mi South 9.2 mph - N/A   Clear
11:55 PM 78.8 °F 8.6 °F 7% 29.85 in 10.0 mi South 10.4 mph - N/A   Clear